When you browse on this site, cookies collect data to enhance your experience and personalize the content and advertising you see.
Visit our Privacy Policy to learn more. By continuing to use the site, you agree to this use of cookies and data.
  • In Hungary
  • List of Countries
  • For 7 days
  • Water Temperature
  • Satellite Maps
  • Weather Map
  • News
  • Weather Widgets
  • user-avatar
    Login

    Hourly Weather Gweru

    Today, 18 November, Sunday

    Time Temperature Precipitation Wind Pressure Humidity
    00:00 +24°C° 0 mm 1 mps 645 mmHg 39%
    01:00 +23°C° 0 mm 1 mps 645 mmHg 41%
    02:00 +23°C° 0 mm 1 mps 644 mmHg 43%
    03:00 +22°C° 0 mm 1 mps 644 mmHg 46%
    04:00 +22°C° 0 mm 1 mps 644 mmHg 49%
    05:00 +20°C° 0 mm 2 mps 644 mmHg 52%
    06:00 +24°C° 0 mm 2 mps 645 mmHg 47%
    07:00 +26°C° 0 mm 2 mps 646 mmHg 43%
    08:00 +28°C° 0 mm 2 mps 647 mmHg 38%
    09:00 +31°C° 0 mm 2 mps 647 mmHg 32%
    10:00 +34°C° 0 mm 2 mps 648 mmHg 26%
    11:00 +36°C° 0 mm 2 mps 648 mmHg 20%
    12:00 +36°C° 0 mm 2 mps 647 mmHg 20%
    13:00 +35°C° 0 mm 3 mps 647 mmHg 19%
    14:00 +35°C° 0 mm 3 mps 646 mmHg 18%
    15:00 +35°C° 0 mm 3 mps 646 mmHg 18%
    16:00 +34°C° 0 mm 3 mps 645 mmHg 19%
    17:00 +33°C° 0 mm 4 mps 645 mmHg 20%
    18:00 +32°C° 0 mm 4 mps 645 mmHg 22%
    19:00 +29°C° 0 mm 4 mps 645 mmHg 25%
    20:00 +28°C° 0 mm 4 mps 645 mmHg 28%
    21:00 +27°C° 0 mm 4 mps 645 mmHg 30%
    22:00 +26°C° 0 mm 4 mps 646 mmHg 32%
    23:00 +25°C° 0 mm 4 mps 646 mmHg 35%

    Tomorrow, 19 November, Monday

    Time Temperature Precipitation Wind Pressure Humidity
    00:00 +23°C° 0 mm 4 mps 645 mmHg 39%
    01:00 +23°C° 0 mm 4 mps 645 mmHg 43%
    02:00 +22°C° 0 mm 3 mps 644 mmHg 47%
    03:00 +21°C° 0 mm 3 mps 644 mmHg 52%
    04:00 +20°C° 0 mm 3 mps 645 mmHg 57%
    05:00 +20°C° 0 mm 3 mps 645 mmHg 62%
    06:00 +21°C° 0 mm 4 mps 646 mmHg 56%
    07:00 +23°C° 0 mm 4 mps 646 mmHg 50%
    08:00 +25°C° 0 mm 5 mps 647 mmHg 44%
    09:00 +27°C° 0 mm 5 mps 648 mmHg 37%
    10:00 +29°C° 0 mm 4 mps 648 mmHg 30%
    11:00 +32°C° 0 mm 4 mps 648 mmHg 23%
    12:00 +33°C° 0 mm 4 mps 647 mmHg 21%
    13:00 +34°C° 0 mm 4 mps 647 mmHg 18%
    14:00 +35°C° 0 mm 4 mps 646 mmHg 15%
    15:00 +35°C° 0 mm 4 mps 646 mmHg 17%
    16:00 +34°C° 0 mm 5 mps 645 mmHg 18%
    17:00 +33°C° 0 mm 5 mps 644 mmHg 19%
    18:00 +30°C° 0 mm 4 mps 644 mmHg 23%
    19:00 +28°C° 0 mm 4 mps 644 mmHg 28%
    20:00 +26°C° 0 mm 3 mps 644 mmHg 32%
    21:00 +25°C° 0 mm 3 mps 645 mmHg 36%
    22:00 +24°C° 0 mm 3 mps 645 mmHg 39%
    23:00 +22°C° 0 mm 3 mps 645 mmHg 43%

    Day after tomorrow, 20 November, Tuesday

    Time Temperature Precipitation Wind Pressure Humidity
    00:00 +22°C° 0 mm 3 mps 644 mmHg 44%
    01:00 +21°C° 0 mm 2 mps 644 mmHg 45%
    02:00 +20°C° 0 mm 2 mps 643 mmHg 46%
    03:00 +19°C° 0 mm 2 mps 643 mmHg 47%
    04:00 +19°C° 0 mm 2 mps 643 mmHg 47%
    05:00 +18°C° 0 mm 2 mps 643 mmHg 48%
    06:00 +21°C° 0 mm 2 mps 644 mmHg 42%
    07:00 +25°C° 0 mm 2 mps 645 mmHg 37%
    08:00 +27°C° 0 mm 3 mps 646 mmHg 31%
    09:00 +30°C° 0 mm 2 mps 647 mmHg 26%
    10:00 +34°C° 0 mm 2 mps 647 mmHg 21%
    11:00 +36°C° 0 mm 1 mps 648 mmHg 16%
    12:00 +37°C° 0 mm 1 mps 647 mmHg 14%
    13:00 +39°C° 0 mm 1 mps 646 mmHg 12%
    14:00 +39°C° 0 mm 1 mps 646 mmHg 10%
    15:00 +38°C° 0 mm 2 mps 645 mmHg 11%
    16:00 +37°C° 0 mm 2 mps 644 mmHg 11%
    17:00 +36°C° 0 mm 2 mps 644 mmHg 11%
    18:00 +34°C° 0 mm 2 mps 643 mmHg 13%
    19:00 +30°C° 0 mm 2 mps 643 mmHg 15%
    20:00 +28°C° 0 mm 2 mps 643 mmHg 17%
    21:00 +27°C° 0 mm 2 mps 643 mmHg 17%
    22:00 +26°C° 0 mm 2 mps 643 mmHg 18%
    23:00 +25°C° 0 mm 2 mps 643 mmHg 18%

    21 November, Wednesday

    Time Temperature Precipitation Wind Pressure Humidity
    00:00 +25°C° 0 mm 3 mps 643 mmHg 19%
    01:00 +24°C° 0 mm 3 mps 642 mmHg 21%
    02:00 +24°C° 0 mm 3 mps 642 mmHg 22%
    03:00 +22°C° 0 mm 3 mps 642 mmHg 24%
    04:00 +22°C° 0 mm 3 mps 642 mmHg 26%
    05:00 +21°C° 0 mm 3 mps 642 mmHg 28%
    06:00 +25°C° 0 mm 3 mps 643 mmHg 26%
    07:00 +28°C° 0 mm 4 mps 644 mmHg 24%
    08:00 +30°C° 0 mm 4 mps 646 mmHg 21%
    09:00 +34°C° 0 mm 4 mps 646 mmHg 19%
    10:00 +36°C° 0 mm 3 mps 646 mmHg 17%
    11:00 +38°C° 0 mm 3 mps 646 mmHg 14%
    12:00 +38°C° 0 mm 2 mps 645 mmHg 14%
    13:00 +38°C° 0 mm 2 mps 644 mmHg 14%
    14:00 +38°C° 0 mm 2 mps 644 mmHg 13%
    15:00 +37°C° 0 mm 2 mps 643 mmHg 15%
    16:00 +36°C° 0 mm 2 mps 643 mmHg 16%
    17:00 +35°C° 0 mm 2 mps 643 mmHg 17%
    18:00 +32°C° 0.1 mm 2 mps 643 mmHg 21%
    19:00 +31°C° 0.1 mm 2 mps 643 mmHg 25%
    20:00 +29°C° 0.1 mm 2 mps 644 mmHg 29%
    21:00 +28°C° 0 mm 3 mps 644 mmHg 29%
    22:00 +28°C° 0 mm 3 mps 644 mmHg 30%
    23:00 +27°C° 0 mm 3 mps 644 mmHg 30%

    22 November, Thursday

    Time Temperature Precipitation Wind Pressure Humidity
    00:00 +27°C° 0 mm 4 mps 644 mmHg 33%
    01:00 +26°C° 0 mm 4 mps 643 mmHg 36%
    02:00 +25°C° 0 mm 5 mps 643 mmHg 39%
    03:00 +23°C° 0 mm 5 mps 643 mmHg 50%
    04:00 +22°C° 0 mm 5 mps 643 mmHg 60%
    05:00 +20°C° 0 mm 6 mps 643 mmHg 71%
    06:00 +21°C° 0 mm 6 mps 644 mmHg 69%
    07:00 +22°C° 0 mm 6 mps 644 mmHg 67%
    08:00 +23°C° 0 mm 6 mps 645 mmHg 65%
    09:00 +26°C° 0 mm 6 mps 646 mmHg 57%
    10:00 +28°C° 0 mm 5 mps 646 mmHg 49%
    11:00 +30°C° 0 mm 5 mps 646 mmHg 41%
    12:00 +32°C° 0 mm 5 mps 646 mmHg 37%
    13:00 +34°C° 0 mm 4 mps 646 mmHg 33%
    14:00 +35°C° 0 mm 4 mps 645 mmHg 29%
    15:00 +33°C° 0.4 mm 4 mps 645 mmHg 36%
    16:00 +29°C° 0.4 mm 4 mps 644 mmHg 44%
    17:00 +27°C° 0.4 mm 5 mps 643 mmHg 52%
    18:00 +25°C° 0.8 mm 5 mps 643 mmHg 61%
    19:00 +22°C° 0.8 mm 5 mps 643 mmHg 70%
    20:00 +20°C° 0.8 mm 5 mps 644 mmHg 78%
    21:00 +20°C° 0.1 mm 5 mps 644 mmHg 80%
    22:00 +20°C° 0.1 mm 4 mps 644 mmHg 81%
    23:00 +20°C° 0.1 mm 4 mps 644 mmHg 82%

    23 November, Friday

    Time Temperature Precipitation Wind Pressure Humidity
    00:00 +20°C° 0 mm 4 mps 644 mmHg 82%
    01:00 +20°C° 0 mm 3 mps 643 mmHg 82%
    02:00 +20°C° 0 mm 3 mps 643 mmHg 82%
    03:00 +19°C° 0 mm 3 mps 643 mmHg 83%
    04:00 +19°C° 0 mm 3 mps 643 mmHg 85%
    05:00 +19°C° 0 mm 2 mps 644 mmHg 86%
    06:00 +20°C° 0 mm 3 mps 644 mmHg 78%
    07:00 +22°C° 0 mm 3 mps 645 mmHg 71%
    08:00 +23°C° 0 mm 4 mps 646 mmHg 63%
    09:00 +27°C° 0 mm 3 mps 646 mmHg 53%
    10:00 +30°C° 0 mm 3 mps 646 mmHg 42%
    11:00 +33°C° 0 mm 3 mps 646 mmHg 32%
    12:00 +33°C° 0 mm 3 mps 646 mmHg 31%
    13:00 +32°C° 0 mm 2 mps 645 mmHg 29%
    14:00 +32°C° 0 mm 2 mps 644 mmHg 28%
    15:00 +31°C° 0.1 mm 2 mps 644 mmHg 31%
    16:00 +31°C° 0.1 mm 2 mps 643 mmHg 33%
    17:00 +30°C° 0.1 mm 2 mps 643 mmHg 35%
    18:00 +28°C° 1.4 mm 2 mps 643 mmHg 43%
    19:00 +26°C° 1.4 mm 2 mps 643 mmHg 51%
    20:00 +24°C° 1.4 mm 3 mps 644 mmHg 59%
    21:00 +22°C° 2.4 mm 3 mps 643 mmHg 65%
    22:00 +21°C° 2.4 mm 3 mps 643 mmHg 72%
    23:00 +21°C° 2.4 mm 4 mps 643 mmHg 78%
    Show more